Regional Weather Roundup
Issued by NWS

Home | Current Version | Previous Version | Text Only | Print | Product List | Glossary On
Versions: 1 2 3 4 5 6 7 8 9 10 11 12 13 14 15 16 17 18 19 20 21 22 23 24 25 26 27 28 29 30 31 32 33 34 35 36 37 38 39 40 41 42 43 44 45 46 47 48 49 50
000
ASUS42 KTBW 281010
RWRFL
FLORIDA REGIONAL WEATHER ROUNDUP
NATIONAL WEATHER SERVICE TAMPA BAY RUSKIN FL
500 AM EST SUN DEC 28 2014

NOTE: "FAIR" INDICATES FEW OR NO CLOUDS BELOW 12,000 FEET WITH NO
SIGNIFICANT WEATHER AND/OR OBSTRUCTIONS TO VISIBILITY.


FLZ001>010-012>015-112-114-115-281100-
PANHANDLE FLORIDA

CITY           SKY/WX    TMP DP  RH WIND       PRES   REMARKS
PENSACOLA      CLOUDY    66  65  96 S7        30.07S
MILTON NAS     CLOUDY    63  61  93 SE8       30.07F
CRESTVIEW      CLOUDY    64  60  87 SE8       30.09F
DUKE FIELD     CLOUDY    63  60  88 S9        30.08F
VALPARAISO     CLOUDY    64  61  92 SE7       30.09S
MARY ESTHER    CLOUDY    66  63  88 SE12      30.07F
PANAMA CITY    CLOUDY    62  58  86 CALM      30.09S
TYNDALL AFB    CLEAR     62  61  97 SE7       30.11S
APALACHICOLA   CLEAR     65  61  87 SE8       30.11F

STATION/POSITION SKY/WX   TEMP    WIND        PRES    WAVE   SWELL
                          AIR SEA DIR/SP/G            HT/PER HT/PER
                          (F)     (DEG/KT/KT) (MB)    (FT/S) (FT/S)
30.1N   87.6W              70 68  170/ 10/ 12 1017.3F   4/ 5   3/ 5
29.2N   88.2W              73 74  180/ 16/ 17 1018.0S   4/ 7   2/ 8
28.7N   86.0W              73 74  160/ 14/ 16 1019.2F   2/ 5
PANAMA CITY BEAC           63 62  120/  9/ 10 1018.9S
CAPE SAN BLAS    NOT AVBL
TOWER C                    65     140/  8/  9 1019.6F
28.5N   84.5W              71 71  130/  8/  8 1019.8F   1/ 3

$$
FLZ011-016>038-118-127-128-134-139-239-281100-
NORTH FLORIDA

CITY           SKY/WX    TMP DP  RH WIND       PRES   REMARKS
MARIANNA       CLOUDY    57  57 100 S5        30.10S
TALLAHASSEE    CLEAR     57  53  86 CALM      30.11S
PERRY          PTCLDY    55  54  99 CALM      30.13F FOG
CROSS CITY       N/A     57  56  96 CALM      30.12F
LAKE CITY      CLOUDY    55  55 100 CALM      30.13F FOG
GAINESVILLE    CLOUDY    61  60  97 CALM      30.14S
MAYPORT NAS    CLOUDY    60  60 100 CALM      30.14S
JACKSONVILLE   MOCLDY    56  56 100 CALM      30.13F
JAX NAS        MOCLDY    62  58  86 CALM      30.14F
JAX CRAIG      CLOUDY    60  59  96 CALM      30.14F
JAX CECIL      MOCLDY    55  55 100 CALM      30.14F FOG
FERNANDINA BEA FAIR      61  59  94 CALM      30.12F
ST AUGUSTINE   PTCLDY    59  59 100 CALM      30.14F

STATION/POSITION SKY/WX   TEMP    WIND        PRES    WAVE   SWELL
                          AIR SEA DIR/SP/G            HT/PER HT/PER
                          (F)     (DEG/KT/KT) (MB)    (FT/S) (FT/S)
SHELL POINT                61      80/  3/  6   N/A
KEATON BEACH               61      70/  4/  4 1020.1F
CEDAR KEY                  64      50/  5/  5 1020.5F
FERNANDINA                 58 61   CALM  /  1 1019.9F
30.7N   81.3W                 60                N/A     2/18   2/18
MAYPORT          NOT AVBL
31.4N   80.9W              60 59  100/  2/  4 1020.2F   3/16   3/16
ST AUGUSTINE               61     290/  2/  3 1020.8F

$$
FLZ040-043>046-052-053-057-058-063-144-281100-
INTERIOR CENTRAL FLORIDA

CITY           SKY/WX    TMP DP  RH WIND       PRES   REMARKS
OCALA          CLOUDY    63  61  94 CALM      30.13F VSB 1/2
THE VILLAGES   FOG       66  66 100 CALM      30.03F VSB 0
LEESBURG       FOG       67  67 100 CALM      30.13F VSB<1/4
SANFORD        FOG       67  66  97 E3        30.13F VSB 1/4
ORLANDO EXEC   FOG       70  70 100 S3        30.13S VSB 1/4
ORLANDO INTL   FOG       70  70 100 SE3       30.13F VSB 1/4
WINTER HAVEN   FOG       68  67  96 CALM      30.14F VSB 1/2
LAKELAND       MOCLDY    63  63 100 CALM      30.13F
BARTOW         FOG       64 N/A N/A CALM      30.14S VSB 1/4
OKEECHOBEE     FOG       61  61 100 CALM      30.14S VSB 1/2

$$
FLZ041-047-054-059-064-141-147-281100-
EAST CENTRAL FLORIDA

CITY           SKY/WX    TMP DP  RH WIND       PRES   REMARKS
DAYTONA BEACH  PTCLDY    65  64  97 CALM      30.13F FOG
DELAND         CLOUDY   N/A N/A N/A CALM      30.13F VSB<1/4
JFK SPACE CTR  FOG       64  63  96 CALM      30.13S VSB 1/2
CAPE CANAVERAL FOG       62  61  98 S3        30.12S VSB 1/2
PATRICK AFB    FOG       67  67 100 S3        30.13S VSB 1/2
MELBOURNE      FOG       69  68  96 S3        30.13S VSB 1/4
VERO BEACH     FOG       64  63  96 CALM      30.13S VSB 1/4
FT PIERCE      FOG       64  63  96 CALM      30.13S VSB 1/4
STUART         FOG       64  64 100 CALM      30.15S VSB 3/4

STATION/POSITION SKY/WX   TEMP    WIND        PRES    WAVE   SWELL
                          AIR SEA DIR/SP/G            HT/PER HT/PER
                          (F)     (DEG/KT/KT) (MB)    (FT/S) (FT/S)
28.5N   80.2W              74 75   CALM  /  2 1020.4F
28.9N   78.5W              73 77  130/ 10/ 12 1020.4F   5/16   5/16
TRIDENT PIER               68 67  150/  2/  3 1019.7F
28.4N   80.5W                 68                N/A     2/17   2/17
27.6N   80.2W                 75                N/A     3/17   2/17

$$
FLZ050-056-061-142-242-148-248-149-249-151-251-155-255-
160-260-281100-
WEST CENTRAL FLORIDA

CITY           SKY/WX    TMP DP  RH WIND       PRES   REMARKS
CRYSTAL RIVER  FOG       63  61  94 CALM      30.13S VSB 1/4
INVERNESS      FOG       64  64 100 CALM      30.14S VSB<1/4
BROOKSVILLE    PTCLDY    62  60  93 CALM      30.14S
ZEPHYRHILLS    FAIR      59  59 100 CALM      30.14S FOG
CLEARWATER     PTCLDY    65  64  97 S3        30.13S
TAMPA INTL     PTCLDY    66  64  93 CALM      30.13S
TAMPA EXEC     PTCLDY    63  61  94 CALM      30.13S FOG
PLANT CITY     PTCLDY    66 N/A N/A CALM      30.14S
MACDILL AFB    MOCLDY    65  64  99 SW2       30.13S
PETER O KNIGHT PTCLDY    68  66  94 CALM      30.13S
ST PETERSBURG  PTCLDY    67  65  93 CALM      30.11F
SARASOTA       FOG       65  65 100 CALM      30.11F VSB 1/2
VENICE         PTSUNNY   64  64 100 CALM      30.13F FOG

STATION/POSITION SKY/WX   TEMP    WIND        PRES    WAVE   SWELL
                          AIR SEA DIR/SP/G            HT/PER HT/PER
                          (F)     (DEG/KT/KT) (MB)    (FT/S) (FT/S)
CEDAR KEY                  64      50/  5/  5 1020.5F
28.5N   84.5W              71 71  130/  8/  8 1019.8F   1/ 3
27.3N   84.3W                 75                N/A     1/ 4
CLEARWATER BEACH           67 67  190/  2/  3 1019.9R
MIDDLE TAMPA BAY           67     240/  3/  4 1020.4F
VENICE                     68 68   CALM  /  1 1019.8F

$$
FLZ066-069-070-075>078-162-262-165-265-281100-
SOUTHWEST FLORIDA AND KEYS

CITY           SKY/WX    TMP DP  RH WIND       PRES   REMARKS
PUNTA GORDA    FOG       63  63 100 CALM      30.14F VSB 1/4
FT MYERS       FOG       64  64 100 CALM      30.12S VSB 1/4
SOUTHWEST INTL FOG       62  62 100 CALM      30.13S VSB 1/2
NAPLES         FOG      N/A N/A N/A CALM      30.12S VSB 1/4
MARCO ISLAND   PTSUNNY   64  63  94 CALM      30.12S VSB 1/2
MARATHON       PTCLDY    74  69  85 E6        30.11S
KEY WEST NAS   CLEAR     74  67  78 SE10      30.11S
KEY WEST INTL  CLEAR     76  68  76 SE8       30.11S

STATION/POSITION SKY/WX   TEMP    WIND        PRES    WAVE   SWELL
                          AIR SEA DIR/SP/G            HT/PER HT/PER
                          (F)     (DEG/KT/KT) (MB)    (FT/S) (FT/S)
VENICE                     68 68   CALM  /  1 1019.8F
NAPLES                     67 76   80/  3/  4 1020.6S
26.0N   85.6W              74 74  120/ 10/ 14 1018.9F   4/ 6   2/ 6
DRY TORTUGAS               72      80/  8/  9 1019.6R
NW FL BAY                  74      80/  6/  7 1020.1F
SAND KEY                   77     120/ 12/ 14 1019.5R
SOMBRERO KEY               77     120/ 12/ 13 1020.3R
LONG KEY                   75 74  120/  8/  9 1020.6R
MOLASSES REEF              76 78  150/ 10/ 12 1019.9S

$$
FLZ067-068-071>074-168-172>174-281100-
SOUTHEAST FLORIDA

CITY           SKY/WX    TMP DP  RH WIND       PRES   REMARKS
W PALM BEACH   MOCLDY    67  66  97 CALM      30.12F
FT LAUDER-EXEC CLEAR     66  64  93 CALM      30.13S
FT LAUDERDALE  PTCLDY    68  67  96 CALM      30.12F
POMPANO BEACH  PTCLDY    67  64  90 CALM      30.13S
PEMBROKE PINES MOCLDY    66  64  93 CALM      30.14S
OPA LOCKA      CLEAR     65  64  97 CALM      30.14S
MIAMI          PTCLDY    69  67  93 CALM      30.13S
WEST KENDALL   FOG       64  63  96 CALM      30.13S VSB 1/4
HOMESTEAD      CLEAR     66  65  96 NE2       30.13S

STATION/POSITION SKY/WX   TEMP    WIND        PRES    WAVE   SWELL
                          AIR SEA DIR/SP/G            HT/PER HT/PER
                          (F)     (DEG/KT/KT) (MB)    (FT/S) (FT/S)
PORT EVERGLADES            76     130/  5/  7 1020.1
VIRGINIA KEY               74 74  140/  5/  6 1020.6S
LAKE WORTH                 71 76  280/  3/  4 1020.0R
SETTLEMENT POINT           74      90/  4/  5 1021.1F

$$




USA.gov is the U.S. government's official web portal to all federal, state and local government web resources and services.